When you browse on this site, cookies collect data to enhance your experience and personalize the content and advertising you see.
Visit our Privacy Policy to learn more. By continuing to use the site, you agree to this use of cookies and data.
  • In Norway
  • List of Countries
  • For 7 days
  • Water Temperature
  • Weather Map
  • Weather Widgets
  • user-avatar
    Login

    Hourly Weather Askim

    Today, 6 December, Friday

    Time Temperature Precipitation Wind Pressure Humidity
    00:00 +3°C° 0.1 mm 6 mps 728 mmHg 91%
    01:00 +3°C° 0.1 mm 6 mps 727 mmHg 94%
    02:00 +3°C° 1.3 mm 5 mps 726 mmHg 95%
    03:00 +5°C° 1.3 mm 4 mps 724 mmHg 96%
    04:00 +5°C° 1.3 mm 4 mps 723 mmHg 97%
    05:00 +5°C° 0.2 mm 3 mps 723 mmHg 97%
    06:00 +4°C° 0.2 mm 3 mps 724 mmHg 96%
    07:00 +4°C° 0.2 mm 3 mps 724 mmHg 96%
    08:00 +4°C° 0 mm 3 mps 725 mmHg 94%
    09:00 +3°C° 0 mm 3 mps 725 mmHg 92%
    10:00 +3°C° 0 mm 3 mps 726 mmHg 90%
    11:00 +3°C° 0 mm 3 mps 727 mmHg 88%
    12:00 +3°C° 0 mm 3 mps 727 mmHg 86%
    13:00 +4°C° 0 mm 3 mps 728 mmHg 85%
    14:00 +3°C° 0 mm 3 mps 728 mmHg 85%
    15:00 +3°C° 0 mm 2 mps 728 mmHg 86%
    16:00 +3°C° 0 mm 2 mps 729 mmHg 87%
    17:00 +3°C° 0 mm 2 mps 729 mmHg 88%
    18:00 +4°C° 0 mm 1 mps 729 mmHg 89%
    19:00 +4°C° 0 mm 1 mps 729 mmHg 90%
    20:00 +4°C° 1 mm 1 mps 728 mmHg 92%
    21:00 +4°C° 1 mm 1 mps 728 mmHg 94%
    22:00 +3°C° 1 mm 0 mps 727 mmHg 96%
    23:00 +4°C° 1.6 mm 1 mps 727 mmHg 97%

    Tomorrow, 7 December, Saturday

    Time Temperature Precipitation Wind Pressure Humidity
    00:00 +3°C° 1.6 mm 1 mps 726 mmHg 97%
    01:00 +3°C° 1.6 mm 1 mps 726 mmHg 98%
    02:00 +3°C° 0.4 mm 1 mps 726 mmHg 97%
    03:00 +3°C° 0.4 mm 1 mps 725 mmHg 97%
    04:00 +2°C° 0.4 mm 1 mps 725 mmHg 96%
    05:00 +2°C° 0 mm 1 mps 726 mmHg 96%
    06:00 +1°C° 0 mm 1 mps 726 mmHg 95%
    07:00 +1°C° 0 mm 1 mps 727 mmHg 94%
    08:00 0°C° 0 mm 1 mps 727 mmHg 92%
    09:00 0°C° 0 mm 1 mps 728 mmHg 89%
    10:00 0°C° 0 mm 1 mps 728 mmHg 87%
    11:00 0°C° 0 mm 1 mps 729 mmHg 83%
    12:00 +1°C° 0 mm 1 mps 729 mmHg 79%
    13:00 +1°C° 0 mm 2 mps 730 mmHg 75%
    14:00 -1°C° 0 mm 2 mps 730 mmHg 75%
    15:00 -1°C° 0 mm 2 mps 730 mmHg 76%
    16:00 -2°C° 0 mm 2 mps 731 mmHg 76%
    17:00 -2°C° 0 mm 2 mps 731 mmHg 76%
    18:00 0°C° 0 mm 1 mps 732 mmHg 76%
    19:00 -1°C° 0 mm 1 mps 733 mmHg 77%
    20:00 -1°C° 0 mm 1 mps 733 mmHg 76%
    21:00 -1°C° 0 mm 1 mps 733 mmHg 76%
    22:00 -2°C° 0 mm 0 mps 734 mmHg 75%
    23:00 -2°C° 0 mm 0 mps 734 mmHg 75%

    Day after tomorrow, 8 December, Sunday

    Time Temperature Precipitation Wind Pressure Humidity
    00:00 -2°C° 0 mm 0 mps 734 mmHg 75%
    01:00 -2°C° 0 mm 0 mps 734 mmHg 75%
    02:00 -2°C° 0 mm 0 mps 733 mmHg 75%
    03:00 -3°C° 0 mm 0 mps 733 mmHg 74%
    04:00 -3°C° 0 mm 0 mps 733 mmHg 74%
    05:00 -2°C° 0 mm 0 mps 732 mmHg 74%
    06:00 -1°C° 0 mm 1 mps 732 mmHg 74%
    07:00 -1°C° 0 mm 1 mps 731 mmHg 73%
    08:00 -1°C° 0.4 mm 1 mps 730 mmHg 80%
    09:00 -3°C° 0.4 mm 2 mps 728 mmHg 87%
    10:00 -4°C° 0.4 mm 3 mps 727 mmHg 94%
    11:00 -2°C° 1.4 mm 3 mps 725 mmHg 94%
    12:00 -3°C° 1.4 mm 4 mps 723 mmHg 95%
    13:00 -2°C° 1.4 mm 5 mps 721 mmHg 96%
    14:00 -2°C° 1.7 mm 5 mps 720 mmHg 96%
    15:00 -2°C° 1.7 mm 5 mps 719 mmHg 96%
    16:00 -2°C° 1.7 mm 5 mps 718 mmHg 96%
    17:00 -3°C° 0.7 mm 4 mps 718 mmHg 94%
    18:00 -4°C° 0.7 mm 3 mps 718 mmHg 92%
    19:00 -5°C° 0.7 mm 2 mps 718 mmHg 90%
    20:00 -5°C° 0 mm 2 mps 718 mmHg 91%
    21:00 -3°C° 0 mm 1 mps 719 mmHg 91%
    22:00 -3°C° 0 mm 1 mps 719 mmHg 91%
    23:00 -3°C° 0 mm 1 mps 719 mmHg 91%

    9 December, Monday

    Time Temperature Precipitation Wind Pressure Humidity
    00:00 -3°C° 0 mm 1 mps 719 mmHg 92%
    01:00 -3°C° 0 mm 1 mps 720 mmHg 92%
    02:00 -3°C° 0 mm 1 mps 720 mmHg 92%
    03:00 -3°C° 0 mm 1 mps 720 mmHg 92%
    04:00 -2°C° 0 mm 1 mps 720 mmHg 92%
    05:00 -2°C° 0 mm 1 mps 720 mmHg 91%
    06:00 -2°C° 0 mm 1 mps 721 mmHg 91%
    07:00 -2°C° 0 mm 1 mps 721 mmHg 90%
    08:00 -4°C° 0 mm 2 mps 722 mmHg 88%
    09:00 -5°C° 0 mm 2 mps 723 mmHg 86%
    10:00 -6°C° 0 mm 3 mps 723 mmHg 84%
    11:00 -5°C° 0 mm 3 mps 724 mmHg 81%
    12:00 -5°C° 0 mm 4 mps 725 mmHg 78%
    13:00 -4°C° 0 mm 4 mps 726 mmHg 75%
    14:00 -4°C° 0 mm 4 mps 727 mmHg 74%
    15:00 -4°C° 0 mm 4 mps 728 mmHg 74%
    16:00 -4°C° 0 mm 4 mps 730 mmHg 73%
    17:00 -4°C° 0 mm 4 mps 731 mmHg 72%
    18:00 -4°C° 0 mm 4 mps 732 mmHg 70%
    19:00 -4°C° 0 mm 4 mps 733 mmHg 69%
    20:00 -5°C° 0 mm 3 mps 735 mmHg 70%
    21:00 -6°C° 0 mm 3 mps 736 mmHg 72%
    22:00 -6°C° 0 mm 2 mps 737 mmHg 73%
    23:00 -6°C° 0 mm 2 mps 738 mmHg 73%

    10 December, Tuesday

    Time Temperature Precipitation Wind Pressure Humidity
    00:00 -7°C° 0 mm 2 mps 739 mmHg 72%
    01:00 -7°C° 0 mm 2 mps 740 mmHg 72%
    02:00 -7°C° 0 mm 2 mps 741 mmHg 72%
    03:00 -7°C° 0 mm 2 mps 741 mmHg 72%
    04:00 -7°C° 0 mm 2 mps 742 mmHg 72%
    05:00 -7°C° 0 mm 2 mps 743 mmHg 72%
    06:00 -7°C° 0 mm 2 mps 744 mmHg 72%
    07:00 -8°C° 0 mm 2 mps 745 mmHg 72%
    08:00 -7°C° 0 mm 1 mps 745 mmHg 71%
    09:00 -7°C° 0 mm 1 mps 746 mmHg 71%
    10:00 -7°C° 0 mm 1 mps 746 mmHg 71%
    11:00 -6°C° 0 mm 1 mps 746 mmHg 70%
    12:00 -5°C° 0 mm 0 mps 746 mmHg 70%
    13:00 -5°C° 0 mm 0 mps 746 mmHg 69%
    14:00 -5°C° 0 mm 0 mps 746 mmHg 71%
    15:00 -6°C° 0 mm 0 mps 746 mmHg 73%
    16:00 -6°C° 0 mm 0 mps 746 mmHg 75%
    17:00 -6°C° 0 mm 1 mps 745 mmHg 76%
    18:00 -4°C° 0 mm 1 mps 745 mmHg 78%
    19:00 -4°C° 0 mm 1 mps 744 mmHg 79%
    20:00 -5°C° 0 mm 2 mps 744 mmHg 78%
    21:00 -4°C° 0 mm 2 mps 743 mmHg 77%
    22:00 -4°C° 0 mm 3 mps 742 mmHg 75%
    23:00 -4°C° 0.2 mm 4 mps 741 mmHg 78%

    11 December, Wednesday

    Time Temperature Precipitation Wind Pressure Humidity
    00:00 -5°C° 0.2 mm 5 mps 740 mmHg 80%
    01:00 -4°C° 0.2 mm 6 mps 739 mmHg 83%
    02:00 -4°C° 0.9 mm 6 mps 737 mmHg 87%
    03:00 -4°C° 0.9 mm 7 mps 735 mmHg 91%
    04:00 -3°C° 0.9 mm 7 mps 733 mmHg 95%
    05:00 -3°C° 2.4 mm 7 mps 731 mmHg 96%
    06:00 -3°C° 2.4 mm 7 mps 730 mmHg 96%
    07:00 -4°C° 2.4 mm 7 mps 729 mmHg 96%
    08:00 -3°C° 1.5 mm 6 mps 728 mmHg 96%
    09:00 -1°C° 1.5 mm 5 mps 728 mmHg 96%
    10:00 0°C° 1.5 mm 4 mps 727 mmHg 96%
    11:00 -1°C° 0 mm 4 mps 727 mmHg 94%
    12:00 0°C° 0 mm 3 mps 727 mmHg 93%
    13:00 0°C° 0 mm 3 mps 727 mmHg 91%
    14:00 0°C° 0 mm 3 mps 727 mmHg 90%
    15:00 -1°C° 0 mm 3 mps 727 mmHg 88%
    16:00 -1°C° 0 mm 3 mps 728 mmHg 87%
    17:00 -1°C° 0 mm 3 mps 728 mmHg 87%
    18:00 0°C° 0 mm 3 mps 728 mmHg 86%
    19:00 -1°C° 0 mm 4 mps 728 mmHg 86%
    20:00 -1°C° 0 mm 3 mps 728 mmHg 87%
    21:00 -2°C° 0 mm 2 mps 727 mmHg 89%
    22:00 -2°C° 0 mm 2 mps 727 mmHg 90%
    23:00 -3°C° 0 mm 2 mps 727 mmHg 92%
    Show more